Regional Weather Roundup
Issued by NWS

Home | Current Version | Previous Version | Graphics & Text | Print | Product List | Glossary On
Versions: 1 2 3 4 5 6 7 8 9 10 11 12 13 14 15 16 17 18 19 20 21 22 23 24 25 26 27 28 29 30 31 32 33 34 35 36 37 38 39 40 41 42 43 44 45 46 47 48 49 50
000
ASUS43 KIND 211659
RWRIN

WEATHER ROUNDUP FOR INDIANA
NATIONAL WEATHER SERVICE INDIANAPOLIS IN
100 PM EDT TUE OCT 21 2014

NOTE: "FAIR" INDICATES FEW OR NO CLOUDS BELOW 12,000 FEET WITH NO
SIGNIFICANT WEATHER AND/OR OBSTRUCTIONS TO VISIBILITY.

* - STATION DOES NOT REPORT WEATHER SUCH AS PRECIPITATION OR FOG.

+ - STATION NOT QUALITY CONTROLLED BY THE NATIONAL WEATHER SERVICE.
    USE DATA WITH CAUTION...ESPECIALLY DEWPOINT AND RELATIVE
    HUMIDITY OBSERVATIONS.

INZ001>003-010>013-019-020-211800-
NORTHWEST INDIANA

CITY           SKY/WX    TMP DP  RH WIND       PRES   REMARKS
GARY /AIRPORT/ PTSUNNY   54  46  76 N12G29    30.16R
VALPARAISO     NOT AVBL

$$

LMZ046-743>745-211800-
SOUTHERN LAKE MICHIGAN

STATION/POSITION TIME  TEMP WIND        PRES
                       AIR  DIR/SP/G
                 (UTC) (F)  (DEG/KT/KT) (MB)
MICHIGAN CITY    1600   51  340/ 24/ 28   N/A

$$

INZ004-005-014>016-021>024-211800-
NORTH CENTRAL INDIANA

CITY           SKY/WX    TMP DP  RH WIND       PRES   REMARKS
ELKHART        CLOUDY    50  41  71 N6        30.12R
GOSHEN         CLOUDY    51  43  74 N12       30.10R
PERU/GRISSOM   CLOUDY    52  46  82 N13       30.09S
SOUTH BEND     PTSUNNY   54  45  71 N13       30.13R

$$

INZ006>009-017-018-025>027-211800-
NORTHEAST INDIANA

CITY           SKY/WX    TMP DP  RH WIND       PRES   REMARKS
ANGOLA *+      CLOUDY    48  34  57 N8        30.08R
FORT WAYNE     CLOUDY    51  43  74 N12       30.09R

$$

INZ028-029-035-036-043>045-051>053-211800-
WEST CENTRAL INDIANA

CITY           SKY/WX    TMP DP  RH WIND       PRES   REMARKS
GREENCASTLE +  PTSUNNY   52  43  71 N10       30.12S
LAFAYETTE      CLOUDY    54  41  61 N13       30.12S
TERRE HAUTE    PTSUNNY   58  42  55 N9        30.12R

$$

INZ030>032-037>040-046>048-054>057-064-065-211800-
CENTRAL INDIANA

CITY           SKY/WX    TMP DP  RH WIND       PRES   REMARKS
ANDERSON       PTSUNNY   54  41  62 NW17G29   30.08S
COLUMBUS       CLOUDY    54  45  71 NW13      30.09S
INDIANAPOLIS   PTSUNNY   53  42  66 N12G18    30.09F
-EAGLE CREEK   PTSUNNY   54  42  64 N13       30.09S
KOKOMO *+      PTSUNNY   54  39  58 N14G23    30.09S
MT COMFORT *+  MOSUNNY   54  36  50 N10       30.08S
SHELBYVILLE    CLOUDY    57  41  55 N13       30.07S

$$

INZ033-034-041-042-049-050-058-059-211800-
EAST CENTRAL INDIANA

CITY           SKY/WX    TMP DP  RH WIND       PRES   REMARKS
MUNCIE         CLOUDY    52  42  69 N13       30.08R

$$

INZ060-061-067>069-081>083-085>088-211800-
SOUTHWEST INDIANA

CITY           SKY/WX    TMP DP  RH WIND       PRES   REMARKS
EVANSVILLE     SUNNY     63  44  50 N5        30.10S
HUNTINGBURG *+ SUNNY     61  45  55 NE12G18   30.10S

$$

INZ062-063-066-070>080-084-089>092-211800-
SOUTH CENTRAL AND SOUTHEAST INDIANA

CITY           SKY/WX    TMP DP  RH WIND       PRES   REMARKS
BLOOMINGTON    CLOUDY    55  45  68 N12       30.10R

$$




USA.gov is the U.S. government's official web portal to all federal, state and local government web resources and services.